Year,Month,Day,Hour,Minute,Value (Times are PST for temperature in C)
2014,08,07,00,00,17.80
2014,08,07,00,01,17.80
2014,08,07,00,02,17.80
2014,08,07,00,03,17.80
2014,08,07,00,04,17.80
2014,08,07,00,05,17.80
2014,08,07,00,06,17.80
2014,08,07,00,07,17.80
2014,08,07,00,08,17.80
2014,08,07,00,09,17.80
2014,08,07,00,10,17.80
2014,08,07,00,11,17.80
2014,08,07,00,12,17.80
2014,08,07,00,13,17.80
2014,08,07,00,14,17.90
2014,08,07,00,15,17.80
2014,08,07,00,16,17.90
2014,08,07,00,17,17.90
2014,08,07,00,18,17.90
2014,08,07,00,19,18.00
2014,08,07,00,20,18.00
2014,08,07,00,21,18.10
2014,08,07,00,22,18.10
2014,08,07,00,23,18.20
2014,08,07,00,24,18.20
2014,08,07,00,25,18.20
2014,08,07,00,26,18.20
2014,08,07,00,27,18.30
2014,08,07,00,28,18.30
2014,08,07,00,29,18.30
2014,08,07,00,30,18.40
2014,08,07,00,31,18.40
2014,08,07,00,32,18.50
2014,08,07,00,33,18.50
2014,08,07,00,34,18.50
2014,08,07,00,35,18.60
2014,08,07,00,36,18.60
2014,08,07,00,37,18.60
2014,08,07,00,38,18.70
2014,08,07,00,39,18.80
2014,08,07,00,40,18.80
2014,08,07,00,41,18.80
2014,08,07,00,42,18.90
2014,08,07,00,43,18.90
2014,08,07,00,44,18.90
2014,08,07,00,45,19.00
2014,08,07,00,46,19.00
2014,08,07,00,47,19.00
2014,08,07,00,48,19.10
2014,08,07,00,49,19.10
2014,08,07,00,50,19.10
2014,08,07,00,51,19.10
2014,08,07,00,52,19.10
2014,08,07,00,53,19.20
2014,08,07,00,54,19.20
2014,08,07,00,55,19.20
2014,08,07,00,56,19.20
2014,08,07,00,57,19.20
2014,08,07,00,58,19.20
2014,08,07,00,59,19.20
2014,08,07,01,00,19.30
2014,08,07,01,01,19.30
2014,08,07,01,02,19.30
2014,08,07,01,03,19.30
2014,08,07,01,04,19.30
2014,08,07,01,05,19.30
2014,08,07,01,06,19.30
2014,08,07,01,07,19.40
2014,08,07,01,08,19.30
2014,08,07,01,09,19.40
2014,08,07,01,10,19.40
2014,08,07,01,11,19.30
2014,08,07,01,12,19.30
2014,08,07,01,13,19.30
2014,08,07,01,14,19.30
2014,08,07,01,15,19.30
2014,08,07,01,16,19.30
2014,08,07,01,17,19.20
2014,08,07,01,18,19.20
2014,08,07,01,19,19.20
2014,08,07,01,20,19.20
2014,08,07,01,21,19.20
2014,08,07,01,22,19.20
2014,08,07,01,23,19.20
2014,08,07,01,24,19.20
2014,08,07,01,25,19.10
2014,08,07,01,26,19.10
2014,08,07,01,27,19.10
2014,08,07,01,28,19.10
2014,08,07,01,29,19.10
2014,08,07,01,30,19.10
2014,08,07,01,31,19.10
2014,08,07,01,32,19.00
2014,08,07,01,33,19.00
2014,08,07,01,34,19.00
2014,08,07,01,35,19.00
2014,08,07,01,36,19.00
2014,08,07,01,37,19.00
2014,08,07,01,38,18.90
2014,08,07,01,39,18.90
2014,08,07,01,40,18.90
2014,08,07,01,41,18.90
2014,08,07,01,42,18.90
2014,08,07,01,43,18.90
2014,08,07,01,44,18.80
2014,08,07,01,45,18.80
2014,08,07,01,46,18.80
2014,08,07,01,47,18.80
2014,08,07,01,48,18.80
2014,08,07,01,49,18.80
2014,08,07,01,50,18.70
2014,08,07,01,51,18.70
2014,08,07,01,52,18.70
2014,08,07,01,53,18.70
2014,08,07,01,54,18.70
2014,08,07,01,55,18.70
2014,08,07,01,56,18.60
2014,08,07,01,57,18.60
2014,08,07,01,58,18.60
2014,08,07,01,59,18.60
2014,08,07,02,00,18.60
2014,08,07,02,01,18.60
2014,08,07,02,02,18.60
2014,08,07,02,03,18.60
2014,08,07,02,04,18.60
2014,08,07,02,05,18.60
2014,08,07,02,06,18.60
2014,08,07,02,07,18.60
2014,08,07,02,08,18.60
2014,08,07,02,09,18.60
2014,08,07,02,10,18.50
2014,08,07,02,11,18.50
2014,08,07,02,12,18.50
2014,08,07,02,13,18.50
2014,08,07,02,14,18.40
2014,08,07,02,15,18.40
2014,08,07,02,16,18.40
2014,08,07,02,17,18.40
2014,08,07,02,18,18.40
2014,08,07,02,19,18.40
2014,08,07,02,20,18.40
2014,08,07,02,21,18.30
2014,08,07,02,22,18.30
2014,08,07,02,23,18.30
2014,08,07,02,24,18.30
2014,08,07,02,25,18.30
2014,08,07,02,26,18.30
2014,08,07,02,27,18.30
2014,08,07,02,28,18.30
2014,08,07,02,29,18.30
2014,08,07,02,30,18.30
2014,08,07,02,31,18.30
2014,08,07,02,32,18.30
2014,08,07,02,33,18.20
2014,08,07,02,34,18.20
2014,08,07,02,35,18.20
2014,08,07,02,36,18.20
2014,08,07,02,37,18.20
2014,08,07,02,38,18.20
2014,08,07,02,39,18.20
2014,08,07,02,40,18.10
2014,08,07,02,41,18.10
2014,08,07,02,42,18.10
2014,08,07,02,43,18.10
2014,08,07,02,44,18.10
2014,08,07,02,45,18.10
2014,08,07,02,46,18.10
2014,08,07,02,47,18.10
2014,08,07,02,48,18.10
2014,08,07,02,49,18.10
2014,08,07,02,50,18.00
2014,08,07,02,51,18.00
2014,08,07,02,52,18.00
2014,08,07,02,53,17.90
2014,08,07,02,54,17.90
2014,08,07,02,55,17.90
2014,08,07,02,56,17.90
2014,08,07,02,57,17.90
2014,08,07,02,58,17.90
2014,08,07,02,59,17.80
2014,08,07,03,00,17.80
2014,08,07,03,01,17.80
2014,08,07,03,02,17.80
2014,08,07,03,06,17.70
2014,08,07,03,07,17.70
2014,08,07,03,08,17.70
2014,08,07,03,09,17.70
2014,08,07,03,10,17.70
2014,08,07,03,11,17.70
2014,08,07,03,12,17.70
2014,08,07,03,13,17.70
2014,08,07,03,14,17.70
2014,08,07,03,15,17.70
2014,08,07,03,16,17.70
2014,08,07,03,17,17.70
2014,08,07,03,18,17.70
2014,08,07,03,19,17.70
2014,08,07,03,20,17.70
2014,08,07,03,21,17.70
2014,08,07,03,22,17.70
2014,08,07,03,23,17.70
2014,08,07,03,24,17.70
2014,08,07,03,25,17.70
2014,08,07,03,26,17.70
2014,08,07,03,27,17.70
2014,08,07,03,28,17.70
2014,08,07,03,29,17.70
2014,08,07,03,30,17.70
2014,08,07,03,31,17.70
2014,08,07,03,32,17.70
2014,08,07,03,33,17.70
2014,08,07,03,34,17.70
2014,08,07,03,35,17.70
2014,08,07,03,36,17.70
2014,08,07,03,37,17.70
2014,08,07,03,38,17.70
2014,08,07,03,39,17.70
2014,08,07,03,40,17.60
2014,08,07,03,41,17.60
2014,08,07,03,42,17.60
2014,08,07,03,43,17.60
2014,08,07,03,44,17.60
2014,08,07,03,45,17.60
2014,08,07,03,46,17.60
2014,08,07,03,47,17.60
2014,08,07,03,48,17.60
2014,08,07,03,49,17.60
2014,08,07,03,50,17.60
2014,08,07,03,51,17.60
2014,08,07,03,52,17.60
2014,08,07,03,53,17.60
2014,08,07,03,54,17.60
2014,08,07,03,55,17.60
2014,08,07,03,56,17.60
2014,08,07,03,57,17.60
2014,08,07,03,58,17.60
2014,08,07,03,59,17.60
2014,08,07,04,00,17.60
2014,08,07,04,01,17.60
2014,08,07,04,02,17.60
2014,08,07,04,03,17.60
2014,08,07,04,04,17.60
2014,08,07,04,05,17.60
2014,08,07,04,06,17.60
2014,08,07,04,07,17.60
2014,08,07,04,08,17.60
2014,08,07,04,09,17.60
2014,08,07,04,10,17.60
2014,08,07,04,11,17.60
2014,08,07,04,12,17.60
2014,08,07,04,13,17.60
2014,08,07,04,14,17.60
2014,08,07,04,15,17.60
2014,08,07,04,16,17.60
2014,08,07,04,17,17.60
2014,08,07,04,18,17.50
2014,08,07,04,19,17.50
2014,08,07,04,20,17.50
2014,08,07,04,21,17.50
2014,08,07,04,22,17.50
2014,08,07,04,23,17.50
2014,08,07,04,24,17.40
2014,08,07,04,25,17.40
2014,08,07,04,26,17.40
2014,08,07,04,27,17.40
2014,08,07,04,28,17.40
2014,08,07,04,29,17.40
2014,08,07,04,30,17.40
2014,08,07,04,31,17.40
2014,08,07,04,32,17.30
2014,08,07,04,33,17.30
2014,08,07,04,34,17.30
2014,08,07,04,35,17.30
2014,08,07,04,36,17.30
2014,08,07,04,37,17.30
2014,08,07,04,38,17.20
2014,08,07,04,39,17.20
2014,08,07,04,40,17.20
2014,08,07,04,41,17.20
2014,08,07,04,42,17.10
2014,08,07,04,43,17.10
2014,08,07,04,44,17.10
2014,08,07,04,45,17.10
2014,08,07,04,46,17.10
2014,08,07,04,47,17.10
2014,08,07,04,48,17.10
2014,08,07,04,49,17.10
2014,08,07,04,50,17.00
2014,08,07,04,51,17.10
2014,08,07,04,52,17.00
2014,08,07,04,53,17.00
2014,08,07,04,54,17.00
2014,08,07,04,55,17.00
2014,08,07,04,56,17.00
2014,08,07,04,57,17.00
2014,08,07,04,58,17.00
2014,08,07,04,59,16.90
2014,08,07,05,00,16.90
2014,08,07,05,01,16.90
2014,08,07,05,02,16.90
2014,08,07,05,03,16.90
2014,08,07,05,04,16.90
2014,08,07,05,05,16.90
2014,08,07,05,06,16.90
2014,08,07,05,07,16.80
2014,08,07,05,08,16.80
2014,08,07,05,09,16.80
2014,08,07,05,10,16.80
2014,08,07,05,11,16.70
2014,08,07,05,12,16.70
2014,08,07,05,13,16.70
2014,08,07,05,14,16.70
2014,08,07,05,15,16.70
2014,08,07,05,16,16.70
2014,08,07,05,17,16.60
2014,08,07,05,18,16.60
2014,08,07,05,19,16.60
2014,08,07,05,20,16.60
2014,08,07,05,21,16.60
2014,08,07,05,22,16.60
2014,08,07,05,23,16.70
2014,08,07,05,24,16.60
2014,08,07,05,25,16.60
2014,08,07,05,26,16.60
2014,08,07,05,27,16.60
2014,08,07,05,28,16.50
2014,08,07,05,29,16.50
2014,08,07,05,30,16.50
2014,08,07,05,31,16.60
2014,08,07,05,32,16.60
2014,08,07,05,33,16.60
2014,08,07,05,34,16.60
2014,08,07,05,35,16.60
2014,08,07,05,36,16.60
2014,08,07,05,37,16.60
2014,08,07,05,38,16.60
2014,08,07,05,39,16.60
2014,08,07,05,40,16.60
2014,08,07,05,41,16.70
2014,08,07,05,42,16.70
2014,08,07,05,43,16.70
2014,08,07,05,44,16.70
2014,08,07,05,45,16.70
2014,08,07,05,46,16.70
2014,08,07,05,47,16.70
2014,08,07,05,48,16.70
2014,08,07,05,49,16.70
2014,08,07,05,50,16.70
2014,08,07,05,51,16.70
2014,08,07,05,52,16.70
2014,08,07,05,53,16.70
2014,08,07,05,54,16.70
2014,08,07,05,55,16.70
2014,08,07,05,56,16.70
2014,08,07,05,57,16.70
2014,08,07,05,58,16.70
2014,08,07,05,59,16.70
2014,08,07,06,00,16.70
2014,08,07,06,01,16.70
2014,08,07,06,02,16.70
2014,08,07,06,03,16.70
2014,08,07,06,04,16.70
2014,08,07,06,05,16.70
2014,08,07,06,06,16.70
2014,08,07,06,07,16.70
2014,08,07,06,08,16.70
2014,08,07,06,09,16.70
2014,08,07,06,10,16.80
2014,08,07,06,11,16.80
2014,08,07,06,12,16.80
2014,08,07,06,13,16.70
2014,08,07,06,14,16.70
2014,08,07,06,15,16.80
2014,08,07,06,16,16.80
2014,08,07,06,17,16.80
2014,08,07,06,18,16.80
2014,08,07,06,19,16.80
2014,08,07,06,20,16.80
2014,08,07,06,21,16.80
2014,08,07,06,22,16.80
2014,08,07,06,23,16.80
2014,08,07,06,24,16.80
2014,08,07,06,25,16.90
2014,08,07,06,26,16.90
2014,08,07,06,27,16.90
2014,08,07,06,28,16.90
2014,08,07,06,29,16.90
2014,08,07,06,30,16.90
2014,08,07,06,31,16.90
2014,08,07,06,32,16.90
2014,08,07,06,33,16.90
2014,08,07,06,34,16.90
2014,08,07,06,35,16.90
2014,08,07,06,36,16.90
2014,08,07,06,37,16.90
2014,08,07,06,38,17.00
2014,08,07,06,39,17.00
2014,08,07,06,40,17.00
2014,08,07,06,41,17.00
2014,08,07,06,42,17.00
2014,08,07,06,43,17.00
2014,08,07,06,44,17.00
2014,08,07,06,45,17.10
2014,08,07,06,46,17.10
2014,08,07,06,47,17.10
2014,08,07,06,48,17.10
2014,08,07,06,49,17.10
2014,08,07,06,50,17.10
2014,08,07,06,51,17.10
2014,08,07,06,52,17.10
2014,08,07,06,53,17.20
2014,08,07,06,54,17.20
2014,08,07,06,55,17.20
2014,08,07,06,56,17.20
2014,08,07,06,57,17.20
2014,08,07,06,58,17.20
2014,08,07,06,59,17.30
2014,08,07,07,00,17.30
2014,08,07,07,01,17.30
2014,08,07,07,02,17.30
2014,08,07,07,03,17.40
2014,08,07,07,04,17.40
2014,08,07,07,05,17.40
2014,08,07,07,06,17.40
2014,08,07,07,07,17.50
2014,08,07,07,08,17.50
2014,08,07,07,09,17.50
2014,08,07,07,10,17.60
2014,08,07,07,11,17.60
2014,08,07,07,12,17.60
2014,08,07,07,13,17.60
2014,08,07,07,14,17.70
2014,08,07,07,15,17.70
2014,08,07,07,16,17.70
2014,08,07,07,17,17.80
2014,08,07,07,18,17.80
2014,08,07,07,19,17.80
2014,08,07,07,20,17.80
2014,08,07,07,21,17.80
2014,08,07,07,22,17.80
2014,08,07,07,23,17.90
2014,08,07,07,24,17.90
2014,08,07,07,25,17.90
2014,08,07,07,26,18.00
2014,08,07,07,27,18.00
2014,08,07,07,28,18.10
2014,08,07,07,29,18.10
2014,08,07,07,30,18.10
2014,08,07,07,31,18.20
2014,08,07,07,32,18.20
2014,08,07,07,33,18.20
2014,08,07,07,34,18.20
2014,08,07,07,35,18.20
2014,08,07,07,36,18.20
2014,08,07,07,37,18.30
2014,08,07,07,38,18.30
2014,08,07,07,39,18.30
2014,08,07,07,40,18.30
2014,08,07,07,41,18.30
2014,08,07,07,42,18.30
2014,08,07,07,43,18.30
2014,08,07,07,44,18.30
2014,08,07,07,45,18.30
2014,08,07,07,46,18.30
2014,08,07,07,47,18.30
2014,08,07,07,48,18.30
2014,08,07,07,49,18.40
2014,08,07,07,50,18.40
2014,08,07,07,51,18.40
2014,08,07,07,52,18.50
2014,08,07,07,53,18.50
2014,08,07,07,54,18.50
2014,08,07,07,55,18.60
2014,08,07,07,56,18.60
2014,08,07,07,57,18.60
2014,08,07,07,58,18.60
2014,08,07,07,59,18.60
2014,08,07,08,00,18.60
2014,08,07,08,01,18.60
2014,08,07,08,02,18.70
2014,08,07,08,03,18.70
2014,08,07,08,04,18.70
2014,08,07,08,05,18.70
2014,08,07,08,06,18.70
2014,08,07,08,07,18.80
2014,08,07,08,08,18.80
2014,08,07,08,09,18.80
2014,08,07,08,10,18.80
2014,08,07,08,11,18.80
2014,08,07,08,12,18.80
2014,08,07,08,13,18.90
2014,08,07,08,14,18.90
2014,08,07,08,15,18.90
2014,08,07,08,16,19.00
2014,08,07,08,17,18.90
2014,08,07,08,18,18.90
2014,08,07,08,19,18.90
2014,08,07,08,20,18.90
2014,08,07,08,21,19.00
2014,08,07,08,22,19.10
2014,08,07,08,23,19.10
2014,08,07,08,24,19.10
2014,08,07,08,25,19.20
2014,08,07,08,26,19.20
2014,08,07,08,27,19.20
2014,08,07,08,28,19.20
2014,08,07,08,29,19.20
2014,08,07,08,30,19.20
2014,08,07,08,31,19.20
2014,08,07,08,32,19.20
2014,08,07,08,33,19.20
2014,08,07,08,34,19.30
2014,08,07,08,35,19.40
2014,08,07,08,36,19.40
2014,08,07,08,37,19.40
2014,08,07,08,38,19.40
2014,08,07,08,39,19.40
2014,08,07,08,40,19.40
2014,08,07,08,41,19.40
2014,08,07,08,42,19.40
2014,08,07,08,43,19.40
2014,08,07,08,44,19.30
2014,08,07,08,45,19.40
2014,08,07,08,46,19.40
2014,08,07,08,47,19.30
2014,08,07,08,48,19.30
2014,08,07,08,49,19.30
2014,08,07,08,50,19.30
2014,08,07,08,51,19.30
2014,08,07,08,52,19.30
2014,08,07,08,53,19.30
2014,08,07,08,54,19.40
2014,08,07,08,55,19.40
2014,08,07,08,56,19.40
2014,08,07,08,57,19.40
2014,08,07,08,58,19.40
2014,08,07,08,59,19.40
2014,08,07,09,00,19.40
2014,08,07,09,01,19.40
2014,08,07,09,02,19.50
2014,08,07,09,03,19.50
2014,08,07,09,04,19.50
2014,08,07,09,05,19.50
2014,08,07,09,06,19.40
2014,08,07,09,07,19.40
2014,08,07,09,08,19.30
2014,08,07,09,09,19.30
2014,08,07,09,10,19.30
2014,08,07,09,11,19.20
2014,08,07,09,12,19.20
2014,08,07,09,13,19.20
2014,08,07,09,14,19.30
2014,08,07,09,15,19.30
2014,08,07,09,16,19.40
2014,08,07,09,17,19.40
2014,08,07,09,18,19.40
2014,08,07,09,19,19.40
2014,08,07,09,20,19.30
2014,08,07,09,21,19.30
2014,08,07,09,22,19.30
2014,08,07,09,23,19.20
2014,08,07,09,24,19.20
2014,08,07,09,25,19.10
2014,08,07,09,26,19.10
2014,08,07,09,27,19.10
2014,08,07,09,28,19.00
2014,08,07,09,29,18.90
2014,08,07,09,30,18.90
2014,08,07,09,31,18.90
2014,08,07,09,32,18.90
2014,08,07,09,33,19.00
2014,08,07,09,34,18.90
2014,08,07,09,35,18.90
2014,08,07,09,36,18.90
2014,08,07,09,37,18.90
2014,08,07,09,38,18.90
2014,08,07,09,39,19.00
2014,08,07,09,40,19.00
2014,08,07,09,41,19.10
2014,08,07,09,42,19.10
2014,08,07,09,43,19.10
2014,08,07,09,44,19.10
2014,08,07,09,45,19.10
2014,08,07,09,46,19.10
2014,08,07,09,47,19.10
2014,08,07,09,48,19.10
2014,08,07,09,49,19.10
2014,08,07,09,50,19.10
2014,08,07,09,51,19.10
2014,08,07,09,52,19.10
2014,08,07,09,53,19.10
2014,08,07,09,54,19.20
2014,08,07,09,55,19.20
2014,08,07,09,56,19.20
2014,08,07,09,57,19.20
2014,08,07,09,58,19.20
2014,08,07,09,59,19.20
2014,08,07,10,00,19.20
2014,08,07,10,01,19.20
2014,08,07,10,02,19.20
2014,08,07,10,03,19.20
2014,08,07,10,04,19.20
2014,08,07,10,05,19.20
2014,08,07,10,06,19.20
2014,08,07,10,07,19.20
2014,08,07,10,08,19.30
2014,08,07,10,09,19.30
2014,08,07,10,10,19.40
2014,08,07,10,11,19.40
2014,08,07,10,12,19.40
2014,08,07,10,13,19.40
2014,08,07,10,14,19.40
2014,08,07,10,15,19.40
2014,08,07,10,16,19.40
2014,08,07,10,17,19.30
2014,08,07,10,18,19.20
2014,08,07,10,19,19.20
2014,08,07,10,20,19.20
2014,08,07,10,21,19.30
2014,08,07,10,22,19.30
2014,08,07,10,23,19.30
2014,08,07,10,24,19.30
2014,08,07,10,25,19.30
2014,08,07,10,26,19.20
2014,08,07,10,27,19.20
2014,08,07,10,28,19.20
2014,08,07,10,29,19.20
2014,08,07,10,30,19.30
2014,08,07,10,31,19.30
2014,08,07,10,32,19.30
2014,08,07,10,33,19.30
2014,08,07,10,34,19.30
2014,08,07,10,35,19.30
2014,08,07,10,36,19.30
2014,08,07,10,37,19.30
2014,08,07,10,38,19.30
2014,08,07,10,39,19.30
2014,08,07,10,40,19.30
2014,08,07,10,41,19.30
2014,08,07,10,42,19.30
2014,08,07,10,43,19.30
2014,08,07,10,44,19.20
2014,08,07,10,45,19.20
2014,08,07,10,46,19.10
2014,08,07,10,47,19.10
2014,08,07,10,48,19.00
2014,08,07,10,49,19.00
2014,08,07,10,50,19.00
2014,08,07,10,51,19.10
2014,08,07,10,52,19.10
2014,08,07,10,53,19.10
2014,08,07,10,54,19.10
2014,08,07,10,55,19.10
2014,08,07,10,56,19.20
2014,08,07,10,57,19.20
2014,08,07,10,58,19.20
2014,08,07,10,59,19.20
2014,08,07,11,00,19.20
2014,08,07,11,01,19.30
2014,08,07,11,02,19.20
2014,08,07,11,03,19.20
2014,08,07,11,04,19.20
2014,08,07,11,05,19.10
2014,08,07,11,06,19.00
2014,08,07,11,07,18.90
2014,08,07,11,08,18.90
2014,08,07,11,09,18.90
2014,08,07,11,10,19.00
2014,08,07,11,11,19.10
2014,08,07,11,12,19.10
2014,08,07,11,13,19.20
2014,08,07,11,14,19.20
2014,08,07,11,15,19.20
2014,08,07,11,16,19.10
2014,08,07,11,17,19.10
2014,08,07,11,18,19.10
2014,08,07,11,19,19.10
2014,08,07,11,20,19.10
2014,08,07,11,21,19.10
2014,08,07,11,22,19.00
2014,08,07,11,23,19.00
2014,08,07,11,24,18.90
2014,08,07,11,25,18.90
2014,08,07,11,26,18.90
2014,08,07,11,27,18.90
2014,08,07,11,28,19.00
2014,08,07,11,29,19.00
2014,08,07,11,30,19.10
2014,08,07,11,31,19.10
2014,08,07,11,32,19.10
2014,08,07,11,33,19.20
2014,08,07,11,34,19.20
2014,08,07,11,35,19.30
2014,08,07,11,36,19.30
2014,08,07,11,37,19.30
2014,08,07,11,38,19.30
2014,08,07,11,39,19.30
2014,08,07,11,40,19.30
2014,08,07,11,41,19.40
2014,08,07,11,42,19.40
2014,08,07,11,43,19.40
2014,08,07,11,44,19.40
2014,08,07,11,45,19.50
2014,08,07,11,46,19.50
2014,08,07,11,47,19.40
2014,08,07,11,48,19.50
2014,08,07,11,49,19.40
2014,08,07,11,50,19.40
2014,08,07,11,51,19.40
2014,08,07,11,52,19.30
2014,08,07,11,53,19.30
2014,08,07,11,54,19.20
2014,08,07,11,55,19.20
2014,08,07,11,56,19.10
2014,08,07,11,57,19.10
2014,08,07,11,58,19.10
2014,08,07,11,59,19.10
2014,08,07,12,00,19.10
2014,08,07,12,01,19.10
2014,08,07,12,02,19.10
2014,08,07,12,03,19.10
2014,08,07,12,04,19.20
2014,08,07,12,05,19.10
2014,08,07,12,06,19.10
2014,08,07,12,07,19.10
2014,08,07,12,08,19.10
2014,08,07,12,09,19.10
2014,08,07,12,10,19.10
2014,08,07,12,11,19.20
2014,08,07,12,12,19.10
2014,08,07,12,13,19.10
2014,08,07,12,14,19.20
2014,08,07,12,15,19.20
2014,08,07,12,16,19.20
2014,08,07,12,17,19.30
2014,08,07,12,18,19.30
2014,08,07,12,19,19.40
2014,08,07,12,20,19.40
2014,08,07,12,21,19.40
2014,08,07,12,22,19.40
2014,08,07,12,23,19.50
2014,08,07,12,24,19.50
2014,08,07,12,25,19.50
2014,08,07,12,26,19.60
2014,08,07,12,27,19.60
2014,08,07,12,28,19.70
2014,08,07,12,29,19.70
2014,08,07,12,30,19.70
2014,08,07,12,31,19.80
2014,08,07,12,32,19.90
2014,08,07,12,33,20.00
2014,08,07,12,34,20.10
2014,08,07,12,35,20.20
2014,08,07,12,36,20.20
2014,08,07,12,37,20.30
2014,08,07,12,38,20.30
2014,08,07,12,39,20.40
2014,08,07,12,40,20.40
2014,08,07,12,41,20.50
2014,08,07,12,42,20.50
2014,08,07,12,43,20.50
2014,08,07,12,44,20.40
2014,08,07,12,45,20.40
2014,08,07,12,46,20.40
2014,08,07,12,47,20.50
2014,08,07,12,48,20.50
2014,08,07,12,49,20.60
2014,08,07,12,50,20.60
2014,08,07,12,51,20.60
2014,08,07,12,52,20.60
2014,08,07,12,53,20.70
2014,08,07,12,54,20.70
2014,08,07,12,55,20.70
2014,08,07,12,56,20.70
2014,08,07,12,57,20.60
2014,08,07,12,58,20.50
2014,08,07,12,59,20.50
2014,08,07,13,00,20.40
2014,08,07,13,01,20.40
2014,08,07,13,02,20.40
2014,08,07,13,03,20.50
2014,08,07,13,04,20.60
2014,08,07,13,05,20.60
2014,08,07,13,06,20.60
2014,08,07,13,07,20.70
2014,08,07,13,08,20.70
2014,08,07,13,09,20.70
2014,08,07,13,10,20.70
2014,08,07,13,11,20.70
2014,08,07,13,12,20.70
2014,08,07,13,13,20.60
2014,08,07,13,14,20.60
2014,08,07,13,15,20.60
2014,08,07,13,16,20.70
2014,08,07,13,17,20.70
2014,08,07,13,18,20.70
2014,08,07,13,19,20.70
2014,08,07,13,20,20.70
2014,08,07,13,21,20.70
2014,08,07,13,22,20.70
2014,08,07,13,23,20.70
2014,08,07,13,24,20.60
2014,08,07,13,25,20.60
2014,08,07,13,26,20.60
2014,08,07,13,27,20.60
2014,08,07,13,28,20.60
2014,08,07,13,29,20.60
2014,08,07,13,30,20.70
2014,08,07,13,31,20.80
2014,08,07,13,32,20.80
2014,08,07,13,33,20.70
2014,08,07,13,34,20.70
2014,08,07,13,35,20.70
2014,08,07,13,36,20.60
2014,08,07,13,37,20.60
2014,08,07,13,38,20.60
2014,08,07,13,39,20.60
2014,08,07,13,40,20.60
2014,08,07,13,41,20.60
2014,08,07,13,42,20.60
2014,08,07,13,43,20.60
2014,08,07,13,44,20.60
2014,08,07,13,45,20.60
2014,08,07,13,46,20.60
2014,08,07,13,47,20.60
2014,08,07,13,48,20.60
2014,08,07,13,49,20.60
2014,08,07,13,50,20.60
2014,08,07,13,51,20.60
2014,08,07,13,52,20.60
2014,08,07,13,53,20.60
2014,08,07,13,54,20.60
2014,08,07,13,55,20.60
2014,08,07,13,56,20.60
2014,08,07,13,57,20.60
2014,08,07,13,58,20.60
2014,08,07,13,59,20.60
2014,08,07,14,00,20.70
2014,08,07,14,01,20.70
2014,08,07,14,02,20.80
2014,08,07,14,03,20.80
2014,08,07,14,04,20.90
2014,08,07,14,05,20.90
2014,08,07,14,06,21.00
2014,08,07,14,07,21.00
2014,08,07,14,08,21.10
2014,08,07,14,09,21.10
2014,08,07,14,10,21.10
2014,08,07,14,11,21.10
2014,08,07,14,12,21.10
2014,08,07,14,13,21.10
2014,08,07,14,14,21.20
2014,08,07,14,15,21.20
2014,08,07,14,16,21.20
2014,08,07,14,17,21.20
2014,08,07,14,18,21.20
2014,08,07,14,19,21.20
2014,08,07,14,20,21.20
2014,08,07,14,21,21.20
2014,08,07,14,22,21.20
2014,08,07,14,23,21.20
2014,08,07,14,24,21.20
2014,08,07,14,25,21.20
2014,08,07,14,26,21.20
2014,08,07,14,27,21.20
2014,08,07,14,28,21.20
2014,08,07,14,29,21.20
2014,08,07,14,30,21.10
2014,08,07,14,31,21.10
2014,08,07,14,32,21.10
2014,08,07,14,33,21.20
2014,08,07,14,34,21.20
2014,08,07,14,35,21.30
2014,08,07,14,36,21.30
2014,08,07,14,37,21.30
2014,08,07,14,38,21.20
2014,08,07,14,39,21.20
2014,08,07,14,40,21.10
2014,08,07,14,41,21.00
2014,08,07,14,42,21.00
2014,08,07,14,43,21.00
2014,08,07,14,44,21.00
2014,08,07,14,45,21.00
2014,08,07,14,46,21.10
2014,08,07,14,47,21.10
2014,08,07,14,48,21.20
2014,08,07,14,49,21.20
2014,08,07,14,50,21.10
2014,08,07,14,51,21.10
2014,08,07,14,52,21.00
2014,08,07,14,53,21.00
2014,08,07,14,54,21.10
2014,08,07,14,55,21.10
2014,08,07,14,56,21.10
2014,08,07,14,57,21.00
2014,08,07,14,58,21.00
2014,08,07,14,59,20.90
2014,08,07,15,00,20.80
2014,08,07,15,01,20.80
2014,08,07,15,02,20.80
2014,08,07,15,03,20.80
2014,08,07,15,04,20.80
2014,08,07,15,05,20.80
2014,08,07,15,06,20.80
2014,08,07,15,07,20.80
2014,08,07,15,08,20.80
2014,08,07,15,09,20.80
2014,08,07,15,10,20.80
2014,08,07,15,11,20.70
2014,08,07,15,12,20.80
2014,08,07,15,13,20.80
2014,08,07,15,14,20.80
2014,08,07,15,15,20.80
2014,08,07,15,16,20.80
2014,08,07,15,17,20.80
2014,08,07,15,18,20.70
2014,08,07,15,19,20.70
2014,08,07,15,20,20.60
2014,08,07,15,21,20.60
2014,08,07,15,22,20.60
2014,08,07,15,23,20.60
2014,08,07,15,24,20.70
2014,08,07,15,25,20.70
2014,08,07,15,26,20.80
2014,08,07,15,27,20.80
2014,08,07,15,28,20.80
2014,08,07,15,29,20.80
2014,08,07,15,30,20.80
2014,08,07,15,31,20.80
2014,08,07,15,32,20.80
2014,08,07,15,33,20.90
2014,08,07,15,34,20.90
2014,08,07,15,35,21.00
2014,08,07,15,36,21.00
2014,08,07,15,37,21.10
2014,08,07,15,38,21.10
2014,08,07,15,39,21.20
2014,08,07,15,40,21.20
2014,08,07,15,41,21.10
2014,08,07,15,42,21.10
2014,08,07,15,43,21.00
2014,08,07,15,44,21.00
2014,08,07,15,45,21.00
2014,08,07,15,46,21.00
2014,08,07,15,47,21.00
2014,08,07,15,48,21.10
2014,08,07,15,49,21.10
2014,08,07,15,50,21.10
2014,08,07,15,51,21.30
2014,08,07,15,52,21.40
2014,08,07,15,53,21.40
2014,08,07,15,54,21.50
2014,08,07,15,55,21.50
2014,08,07,15,56,21.40
2014,08,07,15,57,21.40
2014,08,07,15,58,21.30
2014,08,07,15,59,21.30
2014,08,07,16,00,21.20
2014,08,07,16,01,21.20
2014,08,07,16,02,21.20
2014,08,07,16,03,21.10
2014,08,07,16,04,21.10
2014,08,07,16,05,21.00
2014,08,07,16,06,21.00
2014,08,07,16,07,20.90
2014,08,07,16,08,20.90
2014,08,07,16,09,20.90
2014,08,07,16,10,20.90
2014,08,07,16,11,20.90
2014,08,07,16,12,20.80
2014,08,07,16,13,20.80
2014,08,07,16,14,20.70
2014,08,07,16,15,20.70
2014,08,07,16,16,20.60
2014,08,07,16,17,20.60
2014,08,07,16,18,20.60
2014,08,07,16,19,20.60
2014,08,07,16,20,20.60
2014,08,07,16,21,20.60
2014,08,07,16,22,20.60
2014,08,07,16,23,20.60
2014,08,07,16,24,20.70
2014,08,07,16,25,20.80
2014,08,07,16,26,20.90
2014,08,07,16,27,20.90
2014,08,07,16,28,20.90
2014,08,07,16,29,21.00
2014,08,07,16,30,21.00
2014,08,07,16,31,21.10
2014,08,07,16,32,21.20
2014,08,07,16,33,21.30
2014,08,07,16,34,21.40
2014,08,07,16,35,21.50
2014,08,07,16,36,21.60
2014,08,07,16,37,21.60
2014,08,07,16,38,21.60
2014,08,07,16,39,21.60
2014,08,07,16,40,21.60
2014,08,07,16,41,21.50
2014,08,07,16,42,21.40
2014,08,07,16,43,21.30
2014,08,07,16,44,21.20
2014,08,07,16,45,21.10
2014,08,07,16,46,21.00
2014,08,07,16,47,20.90
2014,08,07,16,48,20.80
2014,08,07,16,49,20.70
2014,08,07,16,50,20.70
2014,08,07,16,51,20.70
2014,08,07,16,52,20.80
2014,08,07,16,53,20.80
2014,08,07,16,54,20.80
2014,08,07,16,55,20.80
2014,08,07,16,56,20.70
2014,08,07,16,57,20.70
2014,08,07,16,58,20.70
2014,08,07,16,59,20.70
2014,08,07,17,00,20.70
2014,08,07,17,01,20.70
2014,08,07,17,02,20.70
2014,08,07,17,03,20.70
2014,08,07,17,04,20.70
2014,08,07,17,05,20.70
2014,08,07,17,06,20.70
2014,08,07,17,07,20.60
2014,08,07,17,08,20.60
2014,08,07,17,09,20.60
2014,08,07,17,10,20.60
2014,08,07,17,11,20.60
2014,08,07,17,12,20.50
2014,08,07,17,13,20.50
2014,08,07,17,14,20.50
2014,08,07,17,15,20.60
2014,08,07,17,16,20.60
2014,08,07,17,17,20.70
2014,08,07,17,18,20.80
2014,08,07,17,19,20.90
2014,08,07,17,20,20.90
2014,08,07,17,21,20.90
2014,08,07,17,22,20.80